Rensselaer, IN

11:55 AM CDT on August 31, 2016 (GMT -0500)
Jasper County

Weather History for KRZL - February, 2013

Change the Weather History Date:

Thursday, February 14, 2013

  Actual Average (KVPZ) Record (KVPZ)
Temperature  
Mean Temperature 36 °F 27 °F  
Max Temperature 41 °F 35 °F 53 °F (2006)
Min Temperature 32 °F 20 °F 5 °F (2010)
Degree Days  
Heating Degree Days 28 38  
Month to date heating degree days 552  
Since 1 July heating degree days 4237  
Cooling Degree Days 0 0  
Month to date cooling degree days 0  
Year to date cooling degree days 0  
Moisture  
Dew Point 32 °F    
Average Humidity 86    
Maximum Humidity 100    
Minimum Humidity 70    
Precipitation  
Precipitation 0.00 in 0.05 in 0.17 in (2001)
Month to date precipitation 0.69  
Year to date precipitation 2.44  
Sea Level Pressure  
Sea Level Pressure 29.83 in    
Wind  
Wind Speed 10 mph (SW)    
Max Wind Speed 25 mph    
Max Gust Speed 32 mph    
Visibility 10 miles    
Events      
T = Trace of Precipitation, MM = Missing Value Source: NWS Daily Summary

Daily Weather History Graph

Daily Weather History Graph

Search for Another Location

Airport or City:

Trip Planner

Search our weather history database for the weather conditions in past years. The results will help you decide how hot, cold, wet, or windy it might be!

Date:

Astronomy

Feb. 14, 2013 Rise Set
Actual Time 6:43 AM CST 5:22 PM CST
Civil Twilight 6:15 AM CST 5:50 PM CST
Nautical Twilight 5:43 AM CST 6:22 PM CST
Astronomical Twilight 5:11 AM CST 6:54 PM CST
Moon 8:43 AM CST (2/14) 10:27 PM CST (2/14)
Length of Visible Light 11h 34m
Length of Day
10h 38m
Waxing Crescent, 22% of the Moon is Illuminated
Feb 14
Waxing Crescent
Feb 17
First Quarter
Feb 25
Full
Mar 4
Last Quarter
Mar 11
New

Hourly Weather History & Observations

Time (CST) Temp. Windchill Dew Point Humidity Pressure Visibility Wind Dir Wind Speed Gust Speed Precip Events Conditions
12:15 AM 32.0 °F 26.4 °F 32.0 °F 100% 29.79 in 10.0 mi SSW 5.8 mph - N/A   Mostly Cloudy
12:35 AM 32.0 °F 27.5 °F 30.2 °F 93% 29.79 in 7.0 mi SSW 4.6 mph - N/A   Scattered Clouds
12:55 AM 32.0 °F 26.4 °F 32.0 °F 100% 29.79 in 10.0 mi SSW 5.8 mph - N/A   Scattered Clouds
1:15 AM 32.0 °F 27.5 °F 32.0 °F 100% 29.78 in 10.0 mi South 4.6 mph - N/A   Mostly Cloudy
1:35 AM 33.8 °F 27.0 °F 32.0 °F 93% 29.78 in 10.0 mi South 8.1 mph - N/A   Mostly Cloudy
1:55 AM 33.8 °F 27.0 °F 32.0 °F 93% 29.78 in 10.0 mi South 8.1 mph - N/A   Mostly Cloudy
2:15 AM 33.8 °F 26.4 °F 32.0 °F 93% 29.78 in 10.0 mi South 9.2 mph - N/A   Mostly Cloudy
2:35 AM 33.8 °F 27.7 °F 32.0 °F 93% 29.76 in 10.0 mi South 6.9 mph - N/A   Scattered Clouds
2:55 AM 33.8 °F 27.7 °F 32.0 °F 93% 29.76 in 10.0 mi South 6.9 mph - N/A   Scattered Clouds
3:15 AM 33.8 °F 26.4 °F 32.0 °F 93% 29.76 in 10.0 mi SSW 9.2 mph - N/A   Mostly Cloudy
3:35 AM 33.8 °F 26.4 °F 32.0 °F 93% 29.76 in 10.0 mi SSW 9.2 mph - N/A   Scattered Clouds
3:55 AM 33.8 °F 26.4 °F 32.0 °F 93% 29.75 in 10.0 mi South 9.2 mph - N/A   Mostly Cloudy
4:15 AM 33.8 °F 26.4 °F 32.0 °F 93% 29.75 in 10.0 mi South 9.2 mph - N/A   Mostly Cloudy
4:35 AM 33.8 °F 27.0 °F 32.0 °F 93% 29.75 in 10.0 mi SSW 8.1 mph - N/A   Scattered Clouds
4:55 AM 33.8 °F 26.4 °F 32.0 °F 93% 29.75 in 10.0 mi SSW 9.2 mph - N/A   Overcast
5:15 AM 33.8 °F 27.0 °F 32.0 °F 93% 29.74 in 10.0 mi SSW 8.1 mph - N/A   Overcast
5:35 AM 35.6 °F 29.2 °F 32.0 °F 87% 29.72 in 10.0 mi South 8.1 mph - N/A   Mostly Cloudy
5:55 AM 35.6 °F 28.6 °F 32.0 °F 87% 29.71 in 10.0 mi South 9.2 mph - N/A   Mostly Cloudy
6:15 AM 35.6 °F 27.5 °F 32.0 °F 87% 29.73 in 10.0 mi SSW 11.5 mph - N/A   Mostly Cloudy
6:35 AM 33.8 °F 25.3 °F 32.0 °F 93% 29.74 in 10.0 mi SSW 11.5 mph - N/A   Mostly Cloudy
6:55 AM 33.8 °F 25.3 °F 32.0 °F 93% 29.74 in 10.0 mi SSW 11.5 mph - N/A   Overcast
7:15 AM 35.6 °F 27.5 °F 32.0 °F 87% 29.73 in 10.0 mi SSW 11.5 mph - N/A   Overcast
7:35 AM 35.6 °F 27.5 °F 32.0 °F 87% 29.74 in 10.0 mi SSW 11.5 mph 16.1 mph N/A   Overcast
7:55 AM 35.6 °F 27.1 °F 32.0 °F 87% 29.74 in 7.0 mi SSW 12.7 mph 17.3 mph N/A   Overcast
8:15 AM 35.6 °F 27.5 °F 33.8 °F 93% 29.74 in 10.0 mi SSW 11.5 mph - N/A   Overcast
8:35 AM 37.4 °F 28.5 °F 33.8 °F 87% 29.74 in 10.0 mi SSW 15.0 mph 20.7 mph N/A   Scattered Clouds
9:15 AM 37.4 °F 29.3 °F 33.8 °F 87% 29.75 in 10.0 mi SW 12.7 mph - N/A   Scattered Clouds
9:55 AM 39.2 °F 30.5 °F 33.8 °F 81% 29.75 in 10.0 mi SW 16.1 mph - N/A   Scattered Clouds
10:15 AM 39.2 °F 29.8 °F 33.8 °F 81% 29.75 in 10.0 mi SW 18.4 mph 21.9 mph N/A   Mostly Cloudy
10:35 AM 41.0 °F 32.2 °F 33.8 °F 76% 29.76 in 10.0 mi WSW 18.4 mph 25.3 mph N/A   Overcast
10:55 AM 41.0 °F 32.2 °F 33.8 °F 76% 29.76 in 10.0 mi WSW 18.4 mph 27.6 mph N/A   Mostly Cloudy
11:15 AM 41.0 °F 30.7 °F 32.0 °F 70% 29.77 in 10.0 mi West 25.3 mph 32.2 mph N/A   Overcast
11:35 AM 37.4 °F 26.9 °F 32.0 °F 81% 29.78 in 10.0 mi WSW 20.7 mph 26.5 mph N/A   Overcast
11:55 AM 37.4 °F 26.6 °F 32.0 °F 81% 29.78 in 10.0 mi WSW 21.9 mph 32.2 mph N/A   Overcast
12:15 PM 37.4 °F 27.2 °F 32.0 °F 81% 29.78 in 10.0 mi WSW 19.6 mph 28.8 mph N/A   Overcast
12:35 PM 37.4 °F 26.4 °F 32.0 °F 81% 29.78 in 10.0 mi WSW 23.0 mph 29.9 mph N/A   Overcast
12:55 PM 37.4 °F 27.5 °F 32.0 °F 81% 29.78 in 10.0 mi WSW 18.4 mph 31.1 mph N/A   Overcast
1:15 PM 37.4 °F 27.2 °F 32.0 °F 81% 29.79 in 10.0 mi WSW 19.6 mph 29.9 mph N/A   Overcast
1:35 PM 37.4 °F 27.5 °F 32.0 °F 81% 29.80 in 10.0 mi West 18.4 mph 25.3 mph N/A   Overcast
1:55 PM 37.4 °F 26.9 °F 32.0 °F 81% 29.81 in 10.0 mi WSW 20.7 mph 27.6 mph N/A   Overcast
2:15 PM 37.4 °F 28.5 °F 32.0 °F 81% 29.82 in 10.0 mi WSW 15.0 mph 26.5 mph N/A   Overcast
2:35 PM 37.4 °F 28.2 °F 32.0 °F 81% 29.83 in 10.0 mi West 16.1 mph 25.3 mph N/A   Overcast
2:55 PM 37.4 °F 28.2 °F 32.0 °F 81% 29.83 in 10.0 mi West 16.1 mph 24.2 mph N/A   Overcast
3:15 PM 37.4 °F 27.8 °F 32.0 °F 81% 29.84 in 10.0 mi West 17.3 mph 26.5 mph N/A   Overcast
3:35 PM 37.4 °F 28.2 °F 32.0 °F 81% 29.85 in 10.0 mi West 16.1 mph 21.9 mph N/A   Overcast
3:55 PM 37.4 °F 27.8 °F 32.0 °F 81% 29.86 in 10.0 mi WSW 17.3 mph 24.2 mph N/A   Overcast
4:15 PM 37.4 °F 28.2 °F 32.0 °F 81% 29.87 in 10.0 mi West 16.1 mph - N/A   Overcast
4:35 PM 37.4 °F 29.3 °F 32.0 °F 81% 29.88 in 10.0 mi West 12.7 mph - N/A   Overcast
4:55 PM 37.4 °F 28.9 °F 32.0 °F 81% 29.89 in 10.0 mi West 13.8 mph 19.6 mph N/A   Overcast
5:15 PM 37.4 °F 28.9 °F 32.0 °F 81% 29.90 in 10.0 mi West 13.8 mph 19.6 mph N/A   Overcast
5:35 PM 37.4 °F 29.8 °F 32.0 °F 81% 29.91 in 10.0 mi West 11.5 mph 19.6 mph N/A   Overcast
5:55 PM 37.4 °F 30.3 °F 30.2 °F 75% 29.92 in 10.0 mi WSW 10.4 mph - N/A   Overcast
6:15 PM 37.4 °F 30.3 °F 32.0 °F 81% 29.93 in 10.0 mi WSW 10.4 mph - N/A   Overcast
6:35 PM 37.4 °F 29.8 °F 32.0 °F 81% 29.94 in 10.0 mi WSW 11.5 mph - N/A   Overcast
6:55 PM 35.6 °F 28.6 °F 32.0 °F 87% 29.95 in 10.0 mi WSW 9.2 mph - N/A   Overcast
7:15 PM 35.6 °F 28.6 °F 32.0 °F 87% 29.96 in 10.0 mi West 9.2 mph - N/A   Overcast
7:35 PM 35.6 °F 29.9 °F 30.2 °F 81% 29.97 in 10.0 mi WNW 6.9 mph - N/A   Overcast
7:55 PM 35.6 °F 30.7 °F 30.2 °F 81% 29.97 in 10.0 mi WNW 5.8 mph - N/A   Overcast
8:15 PM 35.6 °F 29.9 °F 30.2 °F 81% 29.98 in 10.0 mi West 6.9 mph - N/A   Overcast
8:35 PM 33.8 °F 27.7 °F 28.4 °F 81% 29.98 in 10.0 mi West 6.9 mph - N/A   Overcast
8:55 PM 33.8 °F 28.6 °F 28.4 °F 81% 29.98 in 10.0 mi West 5.8 mph - N/A   Mostly Cloudy
9:15 PM 32.0 °F 28.7 °F 28.4 °F 87% 29.98 in 10.0 mi WNW 3.5 mph - N/A   Scattered Clouds
9:35 PM 32.0 °F 28.7 °F 28.4 °F 87% 29.98 in 10.0 mi West 3.5 mph - N/A   Clear
9:55 PM 32.0 °F 26.4 °F 28.4 °F 87% 29.98 in 10.0 mi West 5.8 mph - N/A   Clear
10:15 PM 32.0 °F 26.4 °F 28.4 °F 87% 29.98 in 10.0 mi West 5.8 mph - N/A   Mostly Cloudy
10:35 PM 32.0 °F 28.7 °F 28.4 °F 87% 29.98 in 10.0 mi WSW 3.5 mph - N/A   Overcast
10:55 PM 32.0 °F 28.7 °F 28.4 °F 87% 29.98 in 10.0 mi WSW 3.5 mph - N/A   Overcast
11:15 PM 32.0 °F 26.4 °F 30.2 °F 93% 29.98 in 10.0 mi WSW 5.8 mph - N/A   Overcast
11:35 PM 33.8 °F 28.6 °F 28.4 °F 81% 29.98 in 10.0 mi West 5.8 mph - N/A   Overcast
11:55 PM 33.8 °F 29.6 °F 28.4 °F 81% 29.98 in 10.0 mi West 4.6 mph - N/A   Overcast